Location: Nitra
(0.0000°N, 18.0833°E)
Time: 11:38:53
(UTC+02:00)

Vanguard 1 Rocket - All Passes

Search period start: 29 March 2023 00:00
Search period end: 08 April 2023 00:00
Orbit: 652 x 4223 km, 34.3° (Epoch: 28 March)

Date Brightness Start Highest point End Pass type
(mag) Time Alt. Az. Time Alt. Az. Time Alt. Az.
29 Mar - 01:46:20 10° NNW 01:49:30 11° N 01:52:22 10° N visible
29 Mar - 04:19:30 10° N 04:22:37 12° NNE 04:25:13 10° NE visible
29 Mar - 06:44:16 10° NW 06:50:12 55° NE 06:54:32 10° ESE daylight
29 Mar - 09:13:41 10° SW 09:15:11 11° SSW 09:16:41 10° S daylight
29 Mar - 14:15:27 10° SSE 14:17:17 10° SSE 14:19:15 10° SE daylight
29 Mar - 16:34:11 10° SSW 16:49:10 41° SE 17:11:58 10° ENE daylight
29 Mar - 19:00:11 10° SW 19:21:36 86° NW 19:47:51 10° NE visible
29 Mar - 21:33:24 10° W 21:56:26 40° NW 22:16:36 10° NNE visible
30 Mar - 00:21:24 10° NW 00:33:16 16° NNW 00:42:26 10° NNE visible
30 Mar - 03:06:57 10° N 03:08:50 10° N 03:10:35 10° NNE visible
30 Mar - 05:32:18 10° NNW 05:38:40 27° NNE 05:42:59 10° E visible
30 Mar - 07:59:34 10° W 08:03:53 29° SW 08:07:47 10° SSE daylight
30 Mar - 15:23:55 10° SSW 15:34:54 25° SE 15:51:25 10° E daylight
30 Mar - 17:47:47 10° SW 18:06:08 71° SE 18:32:34 10° ENE daylight
30 Mar - 20:17:04 10° WSW 20:40:00 56° NW 21:03:50 10° NE visible
30 Mar - 22:57:55 10° WNW 23:16:26 24° NNW 23:31:00 10° NNE visible
31 Mar - 01:49:06 10° NNW 01:53:51 12° N 01:57:53 10° NNE visible
31 Mar - 04:20:01 10° NNW 04:26:14 18° NNE 04:30:38 10° ENE visible
31 Mar - 06:46:48 10° NW 06:53:04 84° SW 06:57:31 10° SE daylight
31 Mar - 14:15:34 10° S 14:20:50 13° SSE 14:27:27 10° ESE daylight
31 Mar - 16:36:25 10° SSW 16:51:29 50° SE 17:15:26 10° ENE daylight
31 Mar - 19:02:54 10° WSW 19:23:49 74° NW 19:50:03 10° NE visible
31 Mar - 21:37:36 10° W 21:59:27 34° NNW 22:18:50 10° NNE visible
01 Apr - 00:26:53 10° NW 00:37:36 15° NNW 00:45:57 10° NNE visible
01 Apr - 03:06:44 10° NNW 03:12:48 14° N 03:17:23 10° NE visible
01 Apr - 05:34:12 10° NW 05:41:49 44° NNE 05:46:35 10° ESE visible
01 Apr - 08:03:28 10° W 08:06:41 17° SW 08:09:38 10° S daylight
01 Apr - 15:26:01 10° SSW 15:37:36 31° SE 15:56:01 10° E daylight
01 Apr - 17:50:16 10° SW 18:08:17 83° SE 18:35:03 10° NE daylight
01 Apr - 20:20:31 10° WSW 20:42:37 47° NNW 21:05:55 10° NE visible
01 Apr - 23:03:29 10° WNW 23:20:23 21° NNW 23:33:48 10° NNE visible
02 Apr - 01:51:01 10° NNW 01:58:08 14° N 02:03:40 10° NNE visible
02 Apr - 04:21:23 10° NNW 04:29:42 27° NNE 04:34:56 10° E visible
02 Apr - 06:49:40 10° WNW 06:55:48 48° SW 07:00:10 10° SE daylight
02 Apr - 14:16:58 10° S 14:24:03 17° SE 14:33:50 10° ESE daylight
02 Apr - 16:38:45 10° SW 16:53:42 60° SE 17:18:28 10° ENE daylight
02 Apr - 19:05:51 10° WSW 19:26:12 63° NW 19:52:08 10° NE visible
02 Apr - 21:42:17 10° WNW 22:02:51 29° NNW 22:21:13 10° NNE visible
03 Apr - 00:31:25 10° NW 00:42:03 15° N 00:50:14 10° NNE visible
03 Apr - 03:07:49 10° NNW 03:16:35 20° NNE 03:22:27 10° ENE visible
03 Apr - 05:36:26 10° NW 05:44:49 71° NE 05:49:46 10° ESE visible
03 Apr - 15:28:11 10° SSW 15:40:01 39° SE 15:59:59 10° ENE daylight
03 Apr - 17:52:55 10° SW 18:10:31 84° NW 18:37:17 10° NE daylight
03 Apr - 20:24:20 10° W 20:45:34 40° NNW 21:08:02 10° NE visible
03 Apr - 23:09:03 10° NW 23:24:41 19° NNW 23:37:06 10° NNE visible
04 Apr - 01:52:41 10° NNW 02:02:16 17° N 02:09:05 10° NE visible
04 Apr - 04:23:05 10° NW 04:33:00 39° NNE 04:38:41 10° E visible
04 Apr - 06:52:59 10° W 06:58:27 29° SW 07:02:29 10° SSE daylight
04 Apr - 14:18:43 10° S 14:26:55 22° SE 14:39:17 10° E daylight
04 Apr - 16:41:12 10° SW 16:55:52 72° SE 17:21:08 10° ENE daylight
04 Apr - 19:09:06 10° WSW 19:28:49 53° NNW 19:54:08 10° NE visible
04 Apr - 21:47:22 10° WNW 22:06:41 25° NNW 22:23:52 10° NNE visible
05 Apr - 00:34:53 10° NNW 00:46:29 17° N 00:55:06 10° NE visible
05 Apr - 03:09:12 10° NNW 03:20:11 27° NNE 03:26:48 10° ENE visible
05 Apr - 05:38:57 10° WNW 05:47:36 74° SW 05:52:40 10° SE visible
05 Apr - 15:30:27 10° SSW 15:42:19 48° SE 16:03:26 10° ENE daylight
05 Apr - 17:55:46 10° WSW 18:12:56 71° NW 18:39:21 10° NE daylight
05 Apr - 20:28:35 10° W 20:48:52 34° NNW 21:10:16 10° NNE visible
05 Apr - 23:14:10 10° NW 23:29:12 18° N 23:41:01 10° NNE visible
06 Apr - 01:54:17 10° NNW 02:06:12 22° NNE 02:13:58 10° ENE visible
06 Apr - 04:25:02 10° NW 04:36:07 58° NNE 04:42:03 10° ESE visible
06 Apr - 06:56:54 10° W 07:01:03 18° SW 07:04:22 10° S daylight
06 Apr - 14:20:40 10° SSW 14:29:31 28° SE 14:43:58 10° E daylight
06 Apr - 16:43:47 10° SW 16:58:08 86° SE 17:23:30 10° NE daylight
06 Apr - 19:12:39 10° W 19:31:43 45° NNW 19:56:08 10° NE visible
06 Apr - 21:52:42 10° WNW 22:10:54 22° NNW 22:26:57 10° NNE visible
07 Apr - 00:37:34 10° NNW 00:50:48 19° N 01:00:08 10° NE visible
07 Apr - 03:10:48 10° NW 03:23:37 37° NNE 03:30:41 10° E visible
07 Apr - 05:41:49 10° WNW 05:50:13 47° SW 05:55:15 10° SSE visible
07 Apr - 13:13:03 10° SSE 13:16:57 13° SE 13:21:47 10° ESE daylight
07 Apr - 15:32:49 10° SW 15:44:32 59° SE 16:06:25 10° ENE daylight
07 Apr - 17:58:51 10° WSW 18:15:33 60° NNW 18:41:17 10° NE daylight
07 Apr - 20:33:14 10° WNW 20:52:33 29° NNW 21:12:43 10° NNE visible
07 Apr - 23:18:30 10° NW 23:33:48 19° N 23:45:32 10° NE visible
